Back to catalog

USPWSA-DRAGOON

AliveScienceSSO
NORAD 64542·PAYLOAD·🇺🇸 United States

Launched Jun 23, 2025 from Vandenberg Space Force Base

Loading…

Next Passes (next 24 hours)

TLE

FreshSource: Space-Track

Epoch: Sep 14, 2026, 06:11 UTC

1 64542U 25135Q   26257.25776640  .00007532  00000-0  28414-3 0  9995
2 64542  97.4783  13.4842 0002192 191.3372 168.7818 15.27331462 68516

Track USPWSA-DRAGOON in real time with AllMySat

Download on the App Store